Regional Weather Roundup
Issued by NWS

Home | Current Version | Previous Version | Text Only | Print | Product List | Glossary On
Versions: 1 2 3 4 5 6 7 8 9 10 11 12 13 14 15 16 17 18 19 20 21 22 23 24 25 26 27 28 29 30 31 32 33 34 35 36 37 38 39 40 41 42 43 44 45 46 47 48 49 50
000
ASUS43 KLOT 292106
RWRIL

ILLINOIS REGIONAL WEATHER ROUNDUP
NATIONAL WEATHER SERVICE CHICAGO/ROMEOVILLE IL
400 PM CDT TUE JUL 29 2014

NOTE: "FAIR" INDICATES FEW OR NO CLOUDS BELOW 12,000 FEET WITH NO
SIGNIFICANT WEATHER AND/OR OBSTRUCTIONS TO VISIBILITY.

* THESE STATIONS ARE NOT UNDER NWS QUALITY CONTROL. THEY ALSO MAY NOT
  REPORT WEATHER SUCH AS PRECIPITATION OR FOG.

ILZ001-002-007-009-015-016-024-292200-
NORTHWEST ILLINOIS

CITY           SKY/WX    TMP DP  RH WIND       PRES   REMARKS
MOLINE         SUNNY     80  55  42 NW13      30.07F HX  80
STERLING*      MOSUNNY   81  59  47 NW15G21   30.05F HX  81
SAVANNA*       MOSUNNY   80  52  38 NW9       30.05S HX  80
$$

ILZ003-004-008-010-011-017-018-292200-
NORTH CENTRAL ILLINOIS

CITY           SKY/WX    TMP DP  RH WIND       PRES   REMARKS
ROCKFORD       MOSUNNY   79  57  46 NW9       30.04F HX  80
FREEPORT*      MOSUNNY   78  58  49 NW16      30.07S
ROCHELLE*      MOSUNNY   76  58  54 W14       30.04F
DE KALB*       PTSUNNY   70  58  66 W9        30.05F
PERU*          MOSUNNY   78  57  48 W16G22    30.05F
$$

ILZ005-006-012>014-019>023-292200-
NORTHEAST ILLINOIS

CITY           SKY/WX    TMP DP  RH WIND       PRES   REMARKS
CHICAGO-OHARE  PTSUNNY   78  51  38 NW13      30.00F
CHICAGO-MIDWAY PTSUNNY   78  58  49 E10       30.00F
AURORA         MOSUNNY   70  59  68 SW6       30.04R
LANSING*       LGT RAIN  73  57  58 NE3       30.01S
JOLIET*        MOSUNNY   78  51  38 W7        30.02F
WAUKEGAN       PTSUNNY   74  59  59 SE6       30.00F
DUPAGE AIRPORT CLOUDY    79  55  43 W17G24    30.02S THUNDER
KANKAKEE*      PTSUNNY   78  59  51 W15       30.03F
WHEELING       PTSUNNY   79  52  38 N9        30.02S
MORRIS*        SUNNY     80  57  46 W10G16    30.03F HX  80
ROMEOVILLE*    CLOUDY    78  53  41 W13G23    30.01F
NORTHERLY ISL    N/A     69  59  70 E8          N/A
$$

LMZ740>746-292200-
SOUTHERN LAKE MICHIGAN

STATION/POSITION SKY/WX   TEMP    WIND        PRES    VSBY  WAVE
                          AIR SEA DIR/SP/G                  HT/PER
                          (F)     (DEG/KT/KT) (MB)    (MI)  (FT/S)
SOUTHERN BUOY              63 64  170/  4/  6 1016.4F         1
WAUKEGAN HARBOR            71     140/  5/  6   N/A
HARRISON CRIB              67     110/  7/  9   N/A
BURNHAM HARBOR             67      90/  6/  7   N/A
CALUMET HARBOR             67      60/  5/  8 1015.5S
BURNS HARBOR               69      60/  9/ 10 1017.3S
MICHIGAN CITY              65      30/  7/  8   N/A
MICHIGAN CITY 6N           65 68   70/  6/  6   N/A           1/ 3
ST. JOSEPH                 65 68   CALM  /  2   N/A           1/ 3
$$

ILZ025>027-034>036-040-047-049-050-058-095>099-292200-
WEST-CENTRAL ILLINOIS

CITY           SKY/WX    TMP DP  RH WIND       PRES   REMARKS
QUINCY         MOSUNNY   77  54  44 W10       30.12F
GALESBURG*     SUNNY     79  58  48 NW9       30.09F HX  80
MACOMB*        SUNNY     76  58  53 NW8       30.13S
JACKSONVILLE*  SUNNY     78  56  47 W7        30.12F
PITTSFIELD*    MOSUNNY   78  55  45 W6        30.13S
$$

ILZ028>032-037-038-041>044-048-051>054-059>061-292200-
CENTRAL ILLINOIS

CITY           SKY/WX    TMP DP  RH WIND       PRES   REMARKS
PONTIAC        SUNNY     79  57  47 W9G16     30.05F HX  80
DECATUR        PTSUNNY   77  55  46 W12       30.10F
PEORIA         MOSUNNY   81  55  40 W9        30.08F HX  81
LACON*         MOSUNNY   77  54  45 W7        30.06F
LINCOLN*       MOSUNNY   80  55  41 W6        30.07S HX  80
SPRINGFIELD    MOSUNNY   79  56  45 NW9       30.11S HX  80
TAYLORVILLE    SUNNY     75  55  50 W9        30.10F
$$

ILZ033-039-045-046-055>057-062-063-292200-
EAST-CENTRAL ILLINOIS

CITY           SKY/WX    TMP DP  RH WIND       PRES   REMARKS
CHAMPAIGN      MOSUNNY   76  58  53 W17       30.08F
DANVILLE*      MOSUNNY   75  59  57 W14G20    30.04F
RANTOUL*       MOSUNNY   78  55  44 W13       30.08F
MATTOON        SUNNY     76  57  51 NW14      30.09F
PARIS*         PTSUNNY   77  60  55 W12       30.08F
$$

ILZ079-100>102-292200-
SOUTHWEST ILLINOIS

CITY           SKY/WX    TMP DP  RH WIND       PRES   REMARKS
ALTON          MOSUNNY   77  55  47 W12       30.11F
BELLEVILLE     SUNNY     80  55  41 N9        30.10F HX  80
CAHOKIA*       MOSUNNY   82  54  37 NW9       30.10F HX  81
SPARTA*        PTSUNNY   75  54  46 N6        30.12F
$$

ILZ064>066-069>071-074>076-080>082-084>086-088>090-092>094-292200-
SOUTH-CENTRAL ILLINOIS

CITY           SKY/WX    TMP DP  RH WIND       PRES   REMARKS
CARBONDALE     MOSUNNY   78  52  40 W7        30.12F
CAIRO*         MOSUNNY   80  56  43 CALM      30.13S HX  80
EFFINGHAM*     SUNNY     78  46  31 NW7G17    30.10S
MT. VERNON     MOSUNNY   79  54  41 N3        30.11F
CENTRALIA*     MOSUNNY   82  50  32 NW5       30.11S HX  81
SALEM*         MOSUNNY  N/A N/A N/A NW5G17    30.11F
METROPOLIS*    MOSUNNY   79  46  30 NW7       30.11F
$$

ILZ067-068-072-073-078-083-087-091-292200-
SOUTHEAST ILLINOIS

CITY           SKY/WX    TMP DP  RH WIND       PRES   REMARKS
FLORA*         MOSUNNY   77  51  40 NW9       30.10F
FAIRFIELD*     SUNNY     79  57  47 W6        30.10F HX  80
HARRISBURG*    MOSUNNY   78  53  42 NW7       30.12F
ROBINSON*      PTSUNNY   77  59  54 NW6       30.09F
CARMI*         MOSUNNY   79  59  50 NW9       30.09F HX  80
$$

ABBREVIATIONS USED IN REMARKS
   TC - TEMPERATURE IN CELSIUS
  WCI - WIND CHILL INDEX
   HX - HEAT INDEX
  VSB - VISIBILITY
$$



USA.gov is the U.S. government's official web portal to all federal, state and local government web resources and services.